GFSCGP_925_thetae_009.txt.gz
Theta_e
319 320 320 319 318 319 318 316 316 317 317 317 320 320 322 325 325 326 328 330 331 331 330 330 327 327 329 331 330 330 328 327 328 325 322 320 319 317 314 313 312 311 311 310
319 320 320 319 319 317 317 318 318 319 319 323 321 323 323 325 326 327 327 328 329 330 330 329 330 329 330 331 331 330 329 328 324 322 320 320 319 316 313 312 311 310 310 310
320 320 319 319 318 317 318 317 320 321 322 322 322 325 326 325 327 328 328 328 329 330 331 332 331 331 331 331 330 329 327 324 321 320 318 316 315 314 314 313 311 310 310 309
320 321 320 319 318 320 319 321 321 320 323 322 321 323 325 327 327 326 328 329 330 330 332 333 332 331 330 330 329 326 323 320 318 315 315 316 315 314 312 311 310 309 307 306
321 322 320 319 322 322 326 323 322 323 324 323 323 322 327 328 328 327 327 328 329 330 332 333 332 332 330 328 326 322 319 315 314 314 314 313 312 311 309 306 303 301 300 299
321 322 322 322 322 322 323 323 323 322 322 324 321 323 329 329 327 328 329 329 331 332 332 330 328 328 325 323 320 317 314 313 313 313 312 311 307 304 303 301 299 298 298 298
320 321 321 321 322 322 322 323 322 323 326 324 322 324 322 322 326 327 329 330 330 329 327 325 324 320 319 317 316 315 313 312 312 310 307 304 302 301 300 299 298 298 298 297
320 323 321 322 322 321 322 321 323 321 323 321 323 322 320 323 322 324 328 328 327 326 323 322 320 317 317 316 315 313 313 312 309 304 303 302 300 300 300 299 298 297 297 297
321 321 321 321 321 321 321 323 322 324 324 324 320 319 321 323 323 325 328 327 326 324 321 319 318 317 317 316 315 313 312 310 305 303 303 301 300 300 300 299 298 296 296 296
321 321 320 320 321 321 322 322 322 321 321 323 320 321 319 325 324 324 328 326 325 322 320 320 318 318 317 316 314 313 310 306 304 303 301 301 300 300 299 298 297 296 296 296
320 321 323 321 321 320 322 320 320 322 325 325 321 319 320 318 322 324 326 326 324 322 321 320 319 318 316 314 314 310 307 305 304 302 301 300 300 300 299 298 297 296 295 295
320 322 327 323 322 321 322 322 322 322 321 322 326 320 319 321 322 322 324 325 324 322 321 321 319 317 315 314 311 308 306 305 303 302 300 300 300 299 298 297 296 296 295 295
323 322 326 324 323 321 319 320 320 319 322 319 328 319 319 319 320 321 322 323 323 323 322 321 319 317 315 313 309 307 305 304 302 300 300 300 300 299 298 297 296 295 295 295
318 321 323 325 323 322 322 319 320 319 322 320 320 317 317 318 318 319 320 322 323 323 322 321 320 316 315 312 308 306 305 303 301 300 300 300 299 299 298 297 296 295 294 294
323 324 322 323 321 319 319 319 319 319 318 321 318 314 315 316 316 317 318 319 321 322 322 321 318 316 314 311 307 306 305 302 300 300 299 299 299 298 297 297 296 295 294 294
323 326 324 325 321 320 320 319 317 318 318 317 316 316 316 318 317 317 318 319 319 320 320 319 317 315 312 310 307 306 304 301 300 299 299 299 298 297 296 296 295 295 294 294
326 327 323 321 320 321 324 321 319 318 318 318 319 318 319 318 317 317 317 318 318 318 318 317 316 313 311 309 307 306 303 301 299 299 298 298 297 296 296 295 294 294 294 294
325 324 323 322 319 327 317 316 316 318 318 317 317 317 316 317 318 318 318 318 318 317 317 316 314 312 311 309 306 305 301 300 299 298 297 297 296 295 295 294 294 294 294 294
319 322 323 331 320 317 315 314 314 316 316 317 316 315 316 317 317 318 318 317 317 317 316 315 314 313 311 308 305 303 301 300 298 297 296 296 294 294 294 294 294 294 294 294
316 319 321 320 329 330 319 315 317 317 315 315 315 315 315 316 318 316 318 316 315 315 315 315 314 313 311 307 303 302 300 299 298 297 296 294 294 294 293 293 293 293 294 293
323 324 327 323 328 322 316 315 316 316 318 316 316 315 316 317 316 318 317 316 315 315 315 314 313 312 310 306 302 300 301 298 297 295 294 294 293 293 293 293 293 293 293 293
323 326 328 325 325 327 313 316 319 320 317 316 316 316 317 317 317 316 316 315 314 314 314 313 311 308 304 301 299 299 297 296 294 294 294 293 293 293 293 293 293 293 293 293
324 322 324 320 321 317 315 315 316 316 316 316 316 315 316 316 316 316 316 315 312 312 310 307 302 298 298 298 297 297 294 294 293 293 293 293 293 292 292 292 292 293 293 292
320 317 319 318 316 315 315 315 315 315 315 316 316 317 316 317 316 316 316 313 308 307 303 300 298 296 296 297 296 294 294 293 293 292 292 292 292 291 291 291 292 292 292 292
320 318 318 318 316 315 315 315 316 315 316 317 317 317 317 316 316 315 313 307 303 299 296 297 298 297 296 295 293 292 292 292 292 291 291 292 291 292 292 291 290 292 292 291
318 316 320 319 317 318 317 317 316 317 317 316 316 315 311 311 312 310 304 301 300 297 295 295 295 295 294 293 292 292 292 291 291 291 291 292 292 292 292 291 290 290 290 290

GFSCGP_925_thetae_015.txt.gz
Theta_e
317 316 318 318 319 319 319 318 319 317 317 314 315 317 321 323 323 324 326 332 327 322 322 324 328 327 328 329 331 330 328 323 325 323 320 318 316 314 313 313 312 311 310 310
318 318 318 320 320 319 319 319 318 317 314 313 317 317 317 323 324 322 328 329 330 324 324 323 326 328 328 329 330 330 329 327 326 322 319 317 315 314 313 312 311 310 310 309
320 320 321 321 320 319 320 322 319 318 316 317 319 321 322 322 323 325 326 326 327 326 325 325 325 329 328 329 329 329 328 326 325 326 320 318 314 313 312 311 311 309 306 305
321 319 320 321 320 318 321 321 322 321 320 319 317 322 325 323 321 321 324 326 326 325 327 326 326 329 329 329 329 329 328 328 324 320 318 315 313 313 312 309 304 303 302 301
321 322 322 322 320 320 320 320 321 322 320 324 322 323 324 322 322 322 322 322 321 327 328 326 327 331 331 331 331 330 327 320 319 317 315 315 313 309 304 304 302 301 299 298
319 319 320 321 320 319 321 320 320 321 319 325 324 323 326 324 323 323 325 324 324 326 325 327 330 332 331 331 330 325 320 316 316 315 313 313 310 306 305 301 300 299 299 298
320 319 321 321 320 321 322 322 323 322 325 324 325 327 323 323 322 322 325 322 323 325 327 329 328 328 330 329 321 318 316 315 315 314 311 308 306 305 303 301 300 298 298 298
322 323 320 319 318 321 321 319 324 325 327 329 325 326 323 321 322 323 323 321 322 326 326 328 329 329 325 321 317 315 315 314 314 312 309 306 303 303 302 300 299 298 298 297
323 324 322 321 321 320 320 320 319 326 327 330 327 322 321 322 323 324 322 320 325 327 327 330 328 324 320 318 316 315 314 313 312 309 306 303 302 301 300 300 298 297 297 297
325 326 323 322 322 319 320 319 320 322 326 323 317 320 322 322 322 324 323 322 326 326 324 323 322 320 319 319 317 315 314 313 308 304 303 302 301 301 300 299 298 297 297 296
322 324 326 323 322 318 320 318 318 319 319 321 323 320 317 318 319 322 324 326 326 324 321 319 318 318 318 318 317 316 313 312 306 304 304 303 301 300 300 299 298 297 297 296
322 324 323 325 320 319 318 320 320 317 318 319 318 320 317 316 317 318 318 325 324 323 320 317 316 316 316 317 317 315 314 311 306 304 304 302 301 301 300 299 298 297 296 296
322 318 317 319 322 321 320 318 318 322 318 319 315 318 316 316 316 317 317 318 322 321 318 316 314 316 316 316 315 315 314 309 305 305 304 302 301 301 300 299 298 297 297 296
322 322 318 318 320 322 322 320 318 319 316 316 317 319 315 314 314 315 317 317 317 320 320 316 316 315 316 316 315 314 314 307 306 305 303 302 302 301 301 299 298 297 297 296
320 320 320 321 323 322 322 322 320 316 319 317 317 319 317 315 315 315 315 316 317 314 317 317 315 314 316 315 314 314 313 308 306 304 303 302 301 301 300 298 298 297 297 296
321 323 323 323 322 321 321 320 319 319 319 317 316 316 315 314 312 313 313 313 315 315 314 314 318 316 315 314 314 313 311 308 306 304 302 301 301 300 298 297 297 296 296 296
322 318 317 322 316 316 314 316 319 319 318 318 315 314 315 314 314 312 312 313 313 315 314 314 315 316 315 315 315 313 310 307 305 303 301 299 299 298 297 298 296 295 296 296
320 320 314 316 313 311 316 317 315 317 316 314 314 314 313 312 312 314 313 312 312 313 313 313 314 316 317 317 315 314 309 306 303 301 298 297 298 298 297 295 296 296 295 294
324 315 318 314 316 316 315 315 317 315 315 314 314 313 313 313 311 315 314 313 312 311 310 312 313 315 316 315 315 311 306 304 300 298 298 298 297 296 295 295 294 294 293 293
317 315 312 314 316 312 315 316 315 315 314 315 314 314 315 313 309 315 314 315 313 312 311 307 305 308 311 312 311 306 301 299 298 296 296 296 296 296 294 294 293 293 293 293
313 312 312 310 310 314 319 314 314 312 314 316 315 315 314 314 313 313 313 313 312 305 301 300 299 299 301 302 300 297 297 296 296 296 296 296 296 294 294 293 293 293 292 292
316 316 313 316 317 318 315 314 312 316 315 314 313 314 314 314 314 314 313 310 304 300 298 297 297 296 296 297 297 296 296 295 295 296 296 295 294 294 293 293 292 292 291 291
320 319 317 317 316 315 313 313 315 313 313 314 314 314 315 315 315 312 301 300 299 298 297 297 297 296 296 296 296 295 295 296 297 297 295 294 294 293 292 292 292 291 291 291
320 318 315 314 315 315 313 313 312 313 314 315 312 312 312 313 309 301 299 299 298 298 298 297 296 295 295 296 296 297 296 297 296 293 293 292 292 292 292 291 291 291 291 291
318 316 317 316 315 317 317 316 316 313 313 308 306 305 306 303 302 300 299 298 297 296 296 296 295 295 294 294 294 294 293 293 292 292 292 292 291 291 291 291 292 292 291 291
316 316 312 310 318 316 315 312 310 309 308 307 305 303 301 301 300 298 297 297 297 296 296 295 295 295 295 294 293 293 293 292 292 292 291 291 291 292 292 291 291 292 292 291

GFSCGP_925_thetae_018.txt.gz
Theta_e
316 314 316 316 315 318 318 318 318 317 317 316 315 323 325 323 324 325 327 326 324 326 325 328 327 327 327 326 327 330 329 325 323 324 318 314 314 313 313 313 312 310 310 310
316 316 316 316 319 319 318 318 317 317 315 314 314 325 324 323 325 325 327 327 325 323 322 327 327 326 326 325 328 330 328 324 324 322 317 315 314 313 313 312 311 310 310 309
316 317 319 320 319 319 318 319 320 318 313 315 317 319 322 324 324 324 324 325 325 324 322 325 326 326 326 328 330 329 326 323 324 322 317 315 313 312 311 311 310 310 310 308
318 318 319 320 320 319 318 318 320 320 317 316 315 320 321 321 320 326 324 324 320 324 322 322 326 325 326 329 330 330 328 324 325 322 318 316 313 312 311 311 310 307 305 303
319 320 319 321 320 319 319 317 319 321 319 318 321 321 320 322 318 324 324 325 322 323 322 321 326 326 327 329 329 329 329 328 324 324 319 316 313 312 311 307 302 301 299 298
317 318 319 319 320 319 319 319 320 318 319 321 322 319 318 322 321 319 319 325 324 323 323 323 327 327 326 328 329 328 328 327 326 324 321 317 314 312 306 301 301 299 298 298
319 318 320 321 319 319 320 319 321 320 320 320 323 322 319 319 320 320 319 319 323 322 324 325 327 328 328 328 329 327 325 321 319 318 317 315 312 310 305 302 300 299 298 297
319 320 320 319 319 318 320 317 319 321 323 322 323 325 323 320 319 319 318 319 321 324 326 327 328 328 328 326 325 322 319 317 315 314 314 312 307 305 303 301 299 298 297 297
320 321 321 320 320 320 318 318 318 322 322 325 323 322 314 321 321 321 320 319 322 324 326 327 326 327 325 322 319 318 315 314 313 311 309 306 304 303 302 300 298 297 297 296
320 322 322 321 320 320 319 317 319 320 325 327 318 319 319 323 323 322 323 319 319 324 325 325 325 323 321 317 316 316 315 313 311 309 306 304 302 302 301 299 298 297 296 296
321 319 321 322 321 321 319 317 316 318 317 319 321 319 313 318 319 319 320 320 319 324 326 325 322 321 320 315 314 314 314 313 311 311 307 303 302 301 300 299 298 298 297 296
320 320 319 322 320 318 319 318 316 315 316 316 315 319 316 313 315 318 320 320 321 324 324 323 321 319 316 315 314 314 314 314 313 311 305 303 302 301 300 299 299 298 297 297
319 319 317 320 319 320 318 316 318 317 313 317 315 317 314 312 313 314 315 319 322 322 319 318 318 318 317 316 315 312 312 311 309 304 303 303 302 301 300 299 299 297 298 297
319 317 315 318 318 319 321 321 317 318 315 316 315 317 316 313 312 312 313 316 319 320 319 315 316 317 317 317 315 313 309 307 306 304 303 303 302 301 300 300 298 299 297 296
318 319 318 318 321 321 320 320 320 317 316 316 316 316 314 314 312 312 312 313 315 319 318 317 314 311 314 315 314 313 308 308 307 304 304 303 302 301 301 299 297 297 296 296
319 318 321 320 318 319 320 318 318 318 318 316 315 315 313 310 310 311 311 312 311 311 312 315 315 312 314 314 314 312 310 309 306 304 304 303 302 301 299 297 296 296 295 295
319 316 315 319 314 314 315 315 316 317 317 317 316 314 312 312 313 312 310 312 311 312 311 313 316 314 314 314 313 313 312 308 305 303 302 302 301 298 297 297 296 296 295 295
316 315 310 314 311 315 317 314 315 314 313 312 312 311 313 314 313 312 310 310 310 310 309 308 309 315 315 315 314 314 312 306 303 301 300 298 297 297 296 297 296 297 295 294
322 313 315 312 314 315 315 314 312 313 315 313 312 312 312 313 312 313 313 311 309 308 306 303 304 305 311 314 312 310 305 303 301 298 298 297 297 296 296 298 298 294 294 293
315 313 314 313 314 312 313 314 314 312 314 314 312 313 313 310 309 313 312 309 304 300 299 300 301 302 304 304 307 301 298 297 296 296 296 296 295 296 297 296 294 294 293 293
310 309 310 305 308 310 312 314 311 309 310 313 312 312 313 313 311 311 305 300 299 298 298 297 297 297 296 297 298 297 296 296 295 296 296 296 297 298 297 295 293 293 292 292
314 313 309 314 311 314 314 313 311 309 312 311 311 312 312 312 307 302 300 299 297 297 297 297 296 296 296 296 296 295 295 296 296 297 298 298 298 296 294 293 292 292 292 291
315 313 313 313 313 313 312 313 314 311 311 311 313 313 313 309 302 300 298 298 298 297 297 297 296 296 296 296 297 296 296 297 298 299 298 296 294 293 293 292 292 291 291 291
317 317 315 314 315 316 312 313 312 313 313 310 310 311 308 302 299 299 299 298 297 296 296 295 295 294 294 295 295 295 295 295 294 293 293 293 292 291 291 291 291 291 291 291
315 314 315 313 316 316 315 313 311 307 305 304 303 302 301 300 299 298 297 296 295 295 295 295 294 294 294 294 293 293 293 292 292 292 291 291 291 290 290 291 291 291 291 291
313 314 311 311 313 313 312 309 307 306 305 303 301 300 299 299 298 297 296 296 295 295 295 295 295 294 294 293 293 292 292 292 292 292 291 291 291 290 290 291 291 290 290 291

GFSCGP_925_thetae_021.txt.gz
Theta_e
315 313 315 315 315 316 317 317 317 317 315 318 321 325 327 324 324 324 324 325 329 331 329 330 331 330 331 330 330 328 327 327 324 322 322 322 319 315 314 313 313 312 312 312
315 315 314 315 316 317 317 317 317 316 315 315 314 324 323 324 325 324 326 325 327 329 326 329 328 327 329 330 327 329 328 326 323 322 322 319 314 313 312 312 310 310 310 310
316 316 316 318 317 318 317 318 318 319 314 314 317 320 326 324 322 322 323 325 324 326 325 328 327 326 326 326 327 328 328 326 323 322 320 315 313 313 311 310 310 310 309 309
315 316 318 318 319 318 318 317 317 318 315 317 315 321 319 323 324 322 324 323 323 323 323 327 326 325 324 325 326 327 329 326 324 322 318 315 313 311 310 310 309 308 305 303
317 319 318 319 318 317 318 317 318 319 319 317 319 317 316 320 326 324 322 322 323 320 320 324 326 325 325 325 326 327 328 326 324 322 319 315 313 312 311 310 307 303 301 299
315 317 317 317 318 317 318 318 317 316 317 319 319 318 317 320 323 325 321 321 321 319 320 319 325 325 325 325 327 327 327 325 324 323 320 316 315 312 311 309 305 300 299 298
318 317 318 319 319 318 318 317 319 319 319 319 321 320 318 317 317 318 316 318 320 319 321 319 323 324 325 326 327 327 327 325 324 324 322 318 315 313 311 308 301 298 298 297
317 318 319 319 318 318 318 317 318 320 320 319 322 323 320 318 317 316 316 315 316 319 320 321 324 325 324 325 326 327 327 325 326 325 323 319 315 313 310 305 300 299 298 297
317 318 320 319 319 318 317 317 315 320 319 322 318 320 313 315 319 317 317 319 320 318 321 323 324 325 325 326 326 327 326 323 325 320 319 319 314 312 308 303 299 298 297 296
317 320 321 320 319 319 318 316 317 317 323 324 319 317 317 320 321 320 319 318 320 321 323 324 325 326 326 326 324 323 323 323 324 318 315 312 310 308 305 301 299 298 297 296
319 316 317 321 318 318 318 317 315 316 316 318 318 317 312 316 319 319 317 317 316 321 324 324 325 325 325 324 322 321 319 318 315 313 313 312 309 304 302 300 299 297 296 296
317 316 316 318 318 318 317 317 314 315 316 314 314 316 314 312 313 313 315 317 315 318 322 324 324 321 318 317 317 317 315 314 313 311 310 309 305 302 301 300 298 297 297 297
318 317 317 318 318 318 319 317 316 315 311 316 315 315 312 311 310 310 315 315 316 318 321 321 319 318 317 316 314 314 313 310 308 307 305 304 302 301 300 300 299 298 298 297
315 315 316 318 318 318 320 319 316 316 314 314 314 314 314 314 312 311 310 312 316 319 320 317 317 317 318 317 313 312 311 309 308 306 306 305 302 301 301 300 299 298 298 297
318 318 314 314 315 319 319 318 315 316 315 315 315 315 315 313 311 309 309 313 317 318 317 315 315 313 316 316 316 313 311 310 308 307 307 303 301 301 300 299 299 298 297 296
316 316 317 320 317 317 319 317 316 316 316 314 314 314 310 311 310 309 310 309 310 311 312 314 314 313 313 314 315 315 312 309 307 307 304 302 302 301 300 299 297 296 296 295
316 314 314 317 314 314 314 314 315 315 315 315 315 313 311 313 312 310 310 310 310 309 309 309 309 313 313 313 313 314 312 310 309 305 303 302 302 301 299 297 295 295 296 298
313 312 309 312 311 314 315 314 313 313 312 311 311 312 313 312 310 309 308 309 309 308 307 304 303 305 310 313 312 311 309 306 304 302 301 300 299 297 296 296 297 298 298 298
316 311 312 315 314 314 316 312 312 313 314 312 312 312 313 312 311 311 310 307 305 302 300 299 299 301 305 309 310 309 304 302 300 298 297 296 296 297 297 297 298 298 298 296
312 310 315 309 316 316 314 312 312 311 313 312 311 312 312 310 307 311 307 301 299 298 297 297 297 298 299 299 301 300 297 296 295 295 295 296 297 297 297 297 298 297 295 294
311 308 313 306 309 310 309 312 309 313 311 311 311 310 309 311 308 304 299 298 297 297 297 297 297 296 296 297 298 296 295 295 296 296 297 297 297 298 298 298 296 294 293 292
316 314 309 307 307 314 310 312 310 308 311 311 310 309 310 306 303 300 298 298 297 297 296 296 295 295 295 296 296 295 296 296 297 298 299 298 298 298 296 295 294 293 292 292
315 313 313 313 312 310 311 310 310 309 310 309 310 310 308 302 300 298 298 297 296 296 295 295 295 295 296 296 296 295 296 297 297 298 298 297 296 295 293 293 292 292 292 290
315 313 313 313 314 314 312 312 311 311 311 311 311 309 303 299 298 298 298 296 295 294 294 295 295 294 294 295 295 294 294 293 293 292 292 291 291 291 290 290 290 291 291 290
313 314 314 313 316 314 313 310 306 305 303 302 301 300 299 299 298 297 296 295 294 294 294 295 294 293 293 293 292 292 292 292 292 291 291 291 291 291 291 290 290 290 290 290
312 313 312 312 314 312 313 307 305 304 302 301 300 299 298 297 297 296 295 295 294 294 294 293 293 292 291 291 291 291 291 291 291 291 291 290 290 290 290 290 290 291 291 291

GFSCGP_925_thetae_024.txt.gz
Theta_e
313 313 314 312 313 315 316 315 316 317 315 320 321 327 324 325 325 326 326 329 331 330 328 326 327 326 329 330 329 328 329 328 329 327 327 327 328 326 325 324 322 319 315 313
314 314 312 313 314 316 316 317 316 316 313 315 318 325 325 323 326 325 326 328 329 330 327 327 327 328 330 330 330 328 329 330 329 327 327 326 324 322 320 317 314 313 312 311
315 315 315 316 316 317 317 318 317 318 314 314 318 322 328 324 323 322 323 325 326 328 328 327 328 327 329 330 330 329 328 328 326 325 324 322 319 315 313 312 311 311 310 309
315 314 316 316 317 316 318 316 317 317 313 316 314 316 318 323 324 322 323 322 324 324 326 326 328 326 326 328 329 328 327 326 325 324 322 320 316 312 312 311 310 309 308 306
314 318 317 317 316 317 317 316 317 317 317 317 318 316 314 319 325 325 322 322 323 322 323 324 327 327 326 328 328 328 327 326 325 323 321 319 314 313 312 311 309 307 304 301
314 315 316 316 316 316 316 317 315 315 316 318 317 316 316 318 324 326 324 320 321 320 319 322 326 326 324 326 327 327 326 326 325 323 321 319 316 313 311 309 307 303 301 299
317 316 317 318 318 316 316 316 319 318 319 319 319 319 317 315 315 319 321 321 319 320 318 318 322 324 323 324 325 326 326 325 324 323 321 319 316 313 312 310 307 301 299 298
316 317 317 318 318 317 316 316 317 320 319 318 320 320 317 316 315 314 313 314 314 317 319 318 321 324 324 323 324 325 325 325 325 324 323 320 315 314 312 311 309 304 300 299
315 316 318 319 319 316 316 316 314 318 317 320 316 316 312 313 317 317 316 315 313 316 316 318 318 322 324 324 324 325 325 325 325 325 323 320 318 315 314 311 308 303 300 298
314 317 319 319 319 318 315 314 317 315 321 322 317 316 314 314 318 319 319 316 317 318 317 318 318 322 323 324 324 325 325 325 325 325 323 321 319 317 313 311 306 300 298 298
315 314 315 320 318 317 317 316 314 315 314 318 317 315 312 314 316 315 314 315 315 317 319 319 320 322 323 324 324 325 325 324 323 322 323 319 315 313 311 309 302 299 298 297
316 314 313 317 316 317 315 316 314 316 316 313 312 314 311 310 310 310 311 312 315 313 319 320 321 323 324 324 323 323 321 321 322 322 319 313 311 310 306 303 301 299 298 296
316 313 313 314 314 316 318 316 314 312 310 315 314 315 310 310 310 309 310 311 313 315 316 320 319 319 320 317 319 318 319 320 319 317 314 312 309 308 305 302 300 299 297 297
314 314 312 314 313 315 318 316 315 315 314 314 313 315 313 311 311 310 309 307 311 315 317 318 318 317 316 316 317 316 316 315 313 312 310 308 307 306 303 301 299 297 297 297
314 315 313 313 314 316 317 318 315 315 314 316 316 313 313 312 310 309 307 311 316 317 318 317 316 315 316 317 316 316 314 313 311 308 307 305 305 305 301 300 298 298 297 297
314 316 314 318 317 317 318 316 314 314 314 313 313 313 309 310 309 309 309 309 311 311 310 310 311 311 312 314 316 315 314 312 311 309 307 306 304 302 300 299 298 297 296 296
313 313 313 317 313 315 315 314 315 314 314 314 315 313 309 311 311 310 309 309 308 307 305 304 303 304 307 310 311 312 312 309 306 306 305 305 303 301 299 299 298 296 295 296
310 311 309 310 310 314 315 313 313 313 312 311 312 310 310 310 309 308 307 307 306 303 302 300 299 301 305 309 310 310 308 307 305 303 302 301 300 299 298 296 296 297 298 298
312 309 312 314 314 313 315 312 312 313 312 310 309 311 310 309 309 309 304 301 300 299 298 297 297 298 299 302 303 304 301 301 300 298 298 297 297 296 296 297 298 297 297 297
311 308 313 308 313 315 313 313 309 310 312 309 311 311 311 308 306 309 301 299 297 296 296 296 297 297 297 297 299 298 296 296 295 296 296 296 297 297 297 297 297 297 298 297
311 308 312 304 309 312 311 311 309 313 313 309 311 310 309 309 305 302 298 297 296 296 296 295 295 295 296 296 297 295 295 295 296 297 297 297 298 298 297 298 298 297 296 295
319 315 310 306 308 319 308 311 311 310 309 309 309 308 308 303 299 299 298 297 296 295 295 295 294 294 295 295 296 295 296 297 298 298 298 298 298 298 297 296 295 294 292 292
317 315 314 314 315 311 308 310 307 307 309 309 308 308 306 301 299 298 297 296 295 294 294 294 294 294 295 296 296 295 295 296 296 295 294 293 293 293 292 291 291 290 290 290
313 310 312 312 312 310 310 311 309 309 308 307 308 306 303 300 299 297 296 294 293 293 294 294 293 292 292 292 292 291 291 291 291 291 291 291 291 291 290 290 290 290 290 289
311 312 312 311 315 314 312 311 308 305 303 302 300 299 299 298 297 296 294 293 293 293 293 293 292 290 290 291 291 291 291 291 291 290 290 289 289 288 288 288 287 287 288 288
311 313 313 314 312 311 310 306 304 304 302 300 299 298 297 297 296 295 294 293 293 292 292 291 290 290 289 289 288 288 288 288 287 286 285 284 283 282 282 282 282 282 282 283

GFSCGP_925_thetae_027.txt.gz
Theta_e
314 317 319 317 316 316 317 317 317 318 316 323 325 328 331 332 333 333 333 333 330 328 326 326 326 326 325 325 326 326 326 326 328 326 322 323 325 328 327 326 324 322 319 315
316 318 316 313 314 316 317 317 318 317 314 319 319 324 327 329 332 332 333 333 333 330 329 328 326 326 327 327 327 327 327 327 328 326 325 325 325 326 324 324 322 321 317 313
318 317 314 315 316 318 318 318 318 319 315 316 321 321 329 326 328 328 328 330 331 333 332 330 328 327 327 328 328 328 327 327 327 327 326 326 325 323 318 317 317 315 313 311
317 314 315 316 317 317 319 317 317 317 316 319 316 319 319 328 328 326 327 327 329 330 331 331 329 328 327 327 328 328 327 327 328 328 327 325 323 319 315 315 313 312 311 310
318 317 317 318 318 317 319 317 318 318 317 319 319 319 318 321 330 329 327 326 327 328 329 330 330 329 328 327 327 328 327 326 327 327 325 323 322 319 316 313 311 311 309 308
315 314 317 318 316 316 316 318 317 317 319 323 319 319 321 321 326 328 328 326 325 326 326 327 328 329 329 327 327 328 327 325 324 325 325 323 321 319 314 311 309 308 306 303
316 316 316 317 318 317 318 321 322 322 323 323 319 321 322 320 317 320 324 326 326 325 326 326 326 328 328 327 327 327 327 326 324 324 323 322 320 318 314 312 310 308 306 303
318 319 317 317 318 320 319 321 324 322 323 320 319 324 320 318 317 316 316 317 319 323 324 324 325 327 328 327 326 326 327 326 324 323 324 322 318 317 313 312 309 308 306 303
318 317 315 318 319 318 318 320 317 321 320 324 320 318 317 314 317 320 320 318 318 316 320 322 323 324 326 326 326 326 326 326 324 324 324 323 320 319 316 313 310 308 306 304
317 318 319 319 319 317 317 316 322 320 324 323 320 319 320 318 317 317 319 321 320 320 317 319 321 321 324 325 325 325 326 326 325 324 324 323 321 319 316 313 310 306 305 302
315 317 317 320 321 321 318 319 316 319 320 323 322 319 317 318 317 319 317 315 319 319 323 321 320 320 322 324 324 325 325 326 325 323 324 322 321 319 315 312 309 307 306 301
317 319 319 320 316 316 317 319 318 325 320 317 319 319 314 317 315 314 315 313 316 318 319 323 322 322 322 323 324 324 324 324 321 323 322 320 319 316 313 311 311 309 309 300
317 316 319 318 316 317 319 317 316 315 316 319 327 322 313 313 314 314 313 313 312 316 318 322 324 324 323 323 321 321 321 322 322 321 318 314 312 309 308 307 307 306 301 299
316 316 318 319 318 317 319 317 316 319 321 322 320 320 318 317 315 315 314 312 312 317 319 320 323 322 321 320 320 319 318 318 317 316 313 311 310 308 306 305 303 302 299 298
318 318 315 314 313 316 317 317 316 318 319 322 321 316 317 317 316 314 311 314 317 318 318 318 320 320 319 318 317 317 316 315 314 312 310 309 308 306 304 301 299 298 298 297
315 319 314 315 315 315 318 317 317 317 315 316 315 316 314 313 311 311 312 315 314 312 311 312 312 312 312 312 315 315 315 314 312 309 308 306 305 304 302 300 299 298 296 296
317 317 317 319 314 316 320 318 317 317 315 318 319 319 313 313 313 311 313 311 310 308 307 306 306 307 308 309 310 311 311 310 308 306 305 304 303 302 300 299 298 297 296 294
314 316 315 319 314 324 319 313 315 317 316 314 313 314 312 313 311 310 310 310 307 305 304 303 302 302 302 303 303 304 305 304 303 302 301 302 301 300 298 297 296 295 295 297
314 314 315 322 320 317 315 314 316 317 317 314 314 312 312 311 312 309 304 304 304 302 300 299 299 299 299 300 300 300 299 299 299 298 298 298 298 297 297 297 297 297 296 296
311 311 321 313 321 323 319 314 311 312 318 313 312 313 313 312 319 315 303 301 300 299 299 298 298 298 298 297 298 298 298 297 297 297 297 297 297 297 297 297 297 297 297 297
317 314 319 313 322 319 314 311 311 319 321 313 312 313 314 314 312 308 301 300 298 298 297 297 297 297 297 297 298 297 297 297 298 298 298 298 298 298 298 297 297 297 296 295
322 322 321 315 321 324 312 309 317 318 311 312 313 314 313 305 303 302 300 299 298 297 296 297 296 296 296 297 297 297 297 297 297 297 297 296 295 295 295 295 293 292 291 291
323 320 323 321 324 317 311 315 312 310 313 311 314 311 307 304 303 301 299 298 297 296 296 296 296 295 294 294 295 294 293 293 292 291 290 290 290 290 290 290 290 290 290 290
313 311 318 318 317 314 313 311 311 309 311 309 311 310 306 304 301 299 298 297 296 296 295 294 293 292 291 291 290 290 290 291 291 290 289 288 288 288 287 287 287 287 287 287
315 313 314 315 313 315 314 312 312 309 309 307 306 306 304 302 300 298 297 296 295 294 293 292 291 291 290 289 288 289 289 289 287 286 285 285 284 284 284 283 283 283 283 283
313 315 317 319 315 317 315 313 308 308 307 305 303 301 301 300 298 297 296 295 294 292 291 290 290 288 287 286 285 285 285 285 285 284 283 282 282 281 281 281 281 280 279 279

GFSCGP_925_thetae_030.txt.gz
Theta_e
320 321 319 318 318 320 321 320 320 321 322 325 325 326 331 334 335 335 333 330 329 328 326 326 328 328 328 328 326 326 326 327 329 328 324 322 326 328 329 329 327 324 321 318
320 321 318 318 318 319 321 320 321 321 320 321 323 323 329 334 335 335 334 335 332 330 328 327 327 326 326 327 328 328 328 328 329 326 323 323 325 327 329 327 326 323 321 319
321 320 319 319 320 321 321 321 321 321 320 320 322 322 327 330 333 333 333 333 333 330 330 329 328 327 326 326 327 328 328 329 328 326 324 326 327 325 326 324 323 323 320 318
321 319 319 320 320 320 321 321 320 321 321 321 320 320 323 326 331 333 332 333 333 331 330 330 331 330 329 328 327 328 328 328 329 328 326 325 326 326 325 323 323 321 318 317
320 319 319 320 319 320 320 320 321 322 321 322 321 320 322 324 328 329 331 332 332 331 331 331 331 331 331 330 329 329 329 329 329 329 327 326 327 327 327 323 321 318 315 313
319 318 320 320 320 320 320 321 322 323 323 323 322 321 320 321 322 322 326 328 330 331 331 331 330 331 331 331 330 330 330 330 329 329 328 328 327 328 325 321 316 314 309 309
319 319 319 319 320 320 321 321 323 323 324 324 322 323 321 321 321 322 323 324 328 330 330 331 332 331 331 331 331 331 331 330 329 329 329 329 328 327 323 319 315 311 310 307
320 320 319 320 320 321 322 321 322 324 324 321 322 322 321 321 321 322 322 322 322 326 329 331 331 331 331 332 332 332 331 331 330 329 328 327 326 324 321 318 313 311 309 307
320 319 318 320 321 320 322 322 321 324 325 323 321 321 320 320 319 323 324 324 324 324 323 326 328 330 330 331 332 332 332 331 331 330 329 328 325 323 320 317 315 313 309 307
319 319 319 321 321 320 322 321 323 324 324 323 321 320 319 318 318 319 320 322 323 324 324 323 324 326 327 329 331 331 332 331 331 331 329 328 326 323 319 317 314 311 309 307
318 319 322 322 323 322 322 322 321 323 323 322 321 321 319 319 319 319 320 320 322 324 325 326 324 324 324 327 329 330 330 330 330 331 330 329 328 322 318 316 314 312 311 308
319 319 320 319 320 321 321 321 323 324 323 323 325 321 319 320 320 320 321 318 320 323 324 326 327 325 325 326 327 328 328 329 329 330 329 329 325 322 320 319 316 313 311 305
320 320 321 319 320 320 321 322 322 322 322 321 329 321 320 320 320 320 320 320 318 318 323 326 328 328 327 327 327 327 328 328 328 327 324 324 323 320 318 315 312 310 306 304
319 319 319 320 318 318 321 321 321 322 324 321 322 319 319 320 320 320 321 319 318 321 322 325 328 329 328 328 327 327 327 326 324 322 322 321 319 318 317 315 311 308 305 302
320 319 319 317 317 317 318 317 319 320 320 321 320 320 320 319 321 321 318 318 320 322 324 326 327 328 327 326 325 324 323 320 319 319 319 318 317 315 314 312 311 308 305 301
320 319 320 320 318 318 318 318 317 318 318 318 320 321 320 320 320 318 317 319 321 321 321 320 320 319 318 319 320 319 318 316 316 315 314 313 312 310 308 306 302 300 298 297
321 321 321 320 320 320 321 320 319 319 319 319 321 322 320 320 319 319 319 319 318 316 315 315 315 315 315 315 315 315 313 313 312 311 310 309 308 306 304 302 299 297 296 296
323 322 323 322 321 332 320 319 320 319 319 320 320 320 319 319 319 317 318 317 314 313 312 312 311 311 310 310 310 310 309 308 308 307 306 306 305 303 301 300 298 296 296 296
322 322 324 331 324 321 319 318 320 321 321 321 321 320 319 317 316 315 314 314 312 311 310 309 308 308 307 307 307 306 306 305 304 304 303 303 302 302 301 300 300 299 298 298
318 320 327 322 325 330 321 320 319 319 322 320 319 319 318 317 321 319 311 309 308 307 307 306 306 305 305 305 305 305 304 303 303 302 302 301 301 301 301 300 300 299 299 299
322 322 327 326 328 323 321 318 317 322 323 321 320 319 319 319 319 315 309 308 306 305 304 304 304 304 304 304 304 303 302 302 301 301 300 300 300 300 299 299 297 297 296 296
324 326 328 326 330 329 318 316 322 323 322 320 320 319 319 317 313 310 308 306 305 304 303 303 303 303 302 303 303 302 301 300 300 299 298 297 296 295 295 295 294 293 293 293
324 324 326 325 324 323 318 321 320 320 320 319 319 318 318 313 311 309 307 306 305 303 303 302 302 301 301 300 300 299 298 297 296 294 293 293 292 292 292 293 293 293 292 292
320 318 323 322 322 321 320 319 317 316 318 316 317 317 314 313 310 308 306 305 304 302 302 300 299 298 296 296 295 295 294 293 293 292 292 291 290 290 289 289 288 288 287 287
320 317 321 323 321 317 319 319 319 316 315 314 316 315 314 311 309 307 305 304 303 301 299 298 297 296 294 293 293 292 292 291 291 290 288 288 287 286 286 285 284 283 283 281
317 320 323 326 322 322 322 321 318 316 315 315 315 313 312 310 308 306 304 302 301 299 297 296 295 293 292 290 290 289 289 289 288 287 286 284 285 284 284 283 283 281 280 278

GFSCGP_925_thetae_033.txt.gz
Theta_e
322 322 322 320 320 319 322 321 322 323 325 323 326 327 329 333 332 331 330 330 327 326 325 327 328 325 325 325 324 324 324 324 326 326 325 321 320 323 327 329 330 329 326 325
323 322 321 320 319 319 320 320 321 322 321 321 322 325 327 331 332 332 331 330 330 326 326 326 327 327 326 326 326 325 325 326 326 325 324 321 321 322 326 329 329 328 327 324
323 322 320 319 319 320 320 321 322 321 322 321 321 323 323 326 330 332 331 330 328 328 327 327 326 328 328 327 327 327 327 327 327 326 325 321 321 324 326 328 329 329 327 325
321 322 320 319 320 320 320 320 321 321 321 322 322 324 323 324 328 331 332 330 329 328 328 328 327 326 327 327 328 328 327 327 327 327 325 322 324 325 327 328 328 328 327 325
322 322 320 320 320 320 321 322 321 322 322 323 321 320 323 321 324 327 330 331 330 329 328 328 328 327 327 327 327 328 328 328 328 328 327 324 326 326 326 327 328 327 327 324
321 320 320 320 320 320 321 322 322 322 323 325 322 322 323 321 322 323 325 328 330 329 329 328 327 328 329 328 328 328 328 327 328 328 329 328 328 327 327 329 328 327 324 321
321 320 320 320 321 321 321 322 324 325 327 326 322 322 321 322 321 321 321 324 327 329 329 328 328 329 329 331 331 330 329 329 328 329 329 329 329 328 328 329 327 324 321 316
321 322 320 320 321 321 321 321 324 330 332 328 323 322 321 321 322 321 321 321 322 327 329 329 328 328 328 329 332 332 331 330 329 330 330 330 330 330 330 329 326 321 316 314
321 321 320 320 320 321 322 324 321 323 324 326 325 322 321 321 320 320 322 323 324 324 326 329 329 329 329 329 331 333 333 332 331 330 331 331 330 330 330 329 326 320 317 316
320 321 320 320 321 321 321 323 324 324 330 328 322 322 321 320 319 319 319 322 322 324 326 325 327 328 329 330 331 334 334 333 332 332 332 332 331 330 329 326 323 317 314 312
320 320 321 322 322 321 322 324 323 323 324 327 325 323 321 320 320 320 320 319 320 322 326 327 326 326 327 330 331 333 334 335 334 333 333 333 331 330 328 325 320 317 314 312
320 320 323 322 321 320 321 322 323 328 326 327 329 325 320 320 320 321 320 320 321 322 324 327 328 326 326 327 329 331 333 333 333 333 333 332 330 329 326 322 319 317 315 315
321 321 324 323 320 321 321 324 324 323 325 327 334 324 321 320 320 320 320 320 321 321 323 327 329 329 328 329 329 330 331 331 331 331 332 332 328 325 323 321 320 318 316 313
321 320 321 324 321 320 321 320 321 323 330 326 326 322 321 320 321 321 320 321 321 321 322 324 329 330 329 329 329 330 330 330 330 330 328 328 326 323 321 319 316 313 311 309
321 323 321 320 319 319 318 319 320 322 322 325 324 322 320 320 321 319 322 321 321 321 324 325 328 330 330 330 330 329 328 327 326 325 325 324 322 321 319 317 315 312 308 305
322 322 321 319 318 318 318 318 318 320 320 321 321 321 320 320 320 320 320 321 322 323 325 327 329 329 328 328 327 325 323 321 321 320 319 318 317 316 314 312 309 307 306 303
321 324 324 323 319 319 323 319 319 319 318 319 321 320 319 319 321 321 320 321 323 323 323 323 322 321 320 320 319 318 317 317 316 315 314 313 312 310 308 306 304 303 301 300
323 324 325 326 328 328 321 320 320 320 319 319 318 318 319 321 321 320 320 322 322 321 320 319 318 316 316 315 315 314 313 313 312 311 311 310 308 307 305 304 302 299 298 298
323 326 327 329 325 321 319 320 321 320 320 320 320 320 321 321 321 321 320 321 319 317 317 316 315 314 313 312 311 311 310 309 309 308 307 307 306 305 304 303 303 302 301 301
321 326 329 327 326 327 322 320 320 320 324 320 320 321 321 321 323 321 319 318 316 315 313 313 312 311 311 310 310 309 308 307 307 306 306 305 305 304 303 302 301 300 300 300
325 326 331 330 327 323 320 320 321 325 323 321 321 321 320 320 321 321 317 315 313 312 312 311 311 310 309 309 308 308 307 306 305 304 304 303 302 301 300 300 299 298 298 298
325 327 330 328 330 331 321 321 322 323 322 323 323 320 320 320 320 317 315 313 312 312 310 310 309 309 308 308 307 306 305 304 303 301 301 300 299 298 298 298 296 295 295 295
321 326 326 324 325 324 322 322 322 321 323 324 322 320 320 321 318 315 314 312 311 310 309 309 308 307 307 306 305 305 303 302 300 298 297 295 295 295 295 295 294 294 294 293
321 319 324 324 324 323 323 322 322 323 323 323 321 320 321 321 317 315 313 312 311 310 309 308 306 306 304 303 303 301 300 298 297 296 295 294 293 292 292 291 290 290 289 288
319 321 321 322 321 322 322 323 323 322 321 320 319 320 320 319 316 314 312 311 310 309 307 305 304 302 301 300 298 297 297 296 294 293 292 291 290 289 288 287 286 286 283 282
318 319 324 326 321 325 323 322 323 322 321 319 318 319 319 317 315 313 312 310 309 307 305 303 302 300 298 297 296 295 294 293 292 290 290 289 288 287 287 286 285 283 282 280

GFSCGP_925_thetae_039.txt.gz
Theta_e
316 315 315 314 315 317 318 318 319 321 324 326 329 328 322 323 330 331 326 326 329 325 324 321 319 319 316 316 316 316 316 315 315 314 314 314 315 317 318 320 322 324 325 324
317 317 316 317 318 319 320 319 317 318 323 324 328 327 323 325 330 326 325 326 328 325 324 323 322 318 317 314 314 315 315 314 317 314 314 314 315 320 318 319 320 323 326 325
317 318 318 319 320 321 320 319 317 319 321 321 321 333 332 330 327 329 324 322 325 326 325 324 323 319 317 316 315 314 314 318 316 316 314 315 321 324 319 321 320 323 325 326
319 319 320 321 322 320 319 318 318 320 321 321 319 321 334 329 331 329 326 324 323 326 325 324 325 321 319 319 318 318 318 322 320 318 321 322 324 323 320 320 322 325 326 324
320 319 320 321 321 320 319 319 322 322 321 320 320 321 321 329 331 329 327 327 324 325 325 324 324 325 322 320 320 322 323 322 322 322 323 324 323 324 322 320 321 324 325 325
319 318 319 318 320 319 318 322 322 322 321 321 320 323 322 329 329 329 328 327 326 323 324 325 325 325 325 324 322 323 325 325 323 323 324 326 325 324 321 321 326 326 327 327
318 318 318 319 319 319 318 320 322 322 322 321 327 327 323 319 321 323 328 327 326 325 323 325 325 326 325 325 325 324 324 324 324 325 325 326 326 326 322 320 321 328 328 327
319 320 318 319 319 320 318 320 323 324 324 327 326 326 325 322 321 321 327 327 325 324 324 323 324 325 327 326 326 326 326 326 325 325 326 326 326 327 324 324 326 327 327 326
319 319 318 318 318 318 319 320 319 322 329 327 328 327 325 322 320 320 319 322 320 320 322 323 324 324 325 327 327 328 328 327 327 327 327 327 327 326 327 324 327 326 327 323
318 321 319 319 318 318 318 319 322 323 329 329 329 329 327 323 321 319 317 319 320 321 323 324 323 324 325 325 327 327 327 328 328 327 328 328 329 328 327 329 327 325 323 325
316 317 319 320 320 319 319 319 322 324 326 327 325 323 321 323 321 318 315 317 318 319 319 321 322 323 325 326 326 326 327 327 328 328 327 328 329 330 329 329 327 324 324 326
317 319 318 319 320 319 318 319 320 325 327 327 326 324 321 320 320 319 318 316 316 320 321 320 320 322 323 326 327 327 328 328 324 321 329 329 329 328 328 328 327 325 325 322
317 318 319 319 318 318 319 319 320 321 322 324 324 325 319 319 319 318 318 317 317 317 320 321 322 323 324 325 328 329 331 330 326 324 325 330 330 329 324 326 324 324 323 321
321 318 318 319 319 320 321 321 320 319 322 323 323 324 323 323 322 319 319 319 316 316 318 322 322 323 324 327 329 331 332 332 331 331 331 330 330 329 327 325 323 320 319 318
324 321 318 317 318 320 321 321 321 320 321 324 325 325 323 322 321 320 320 319 320 319 317 322 323 323 325 329 330 329 330 330 330 330 329 327 326 325 323 321 320 319 316 315
323 323 320 320 318 319 320 321 320 319 319 323 323 323 321 321 319 321 319 319 318 317 317 319 325 326 327 328 328 327 327 326 328 326 324 323 322 321 319 318 317 313 311 310
321 321 321 320 319 319 319 319 319 320 319 319 322 322 321 320 320 320 319 319 317 317 318 320 327 327 327 327 326 324 324 323 322 321 320 319 318 317 316 315 312 310 308 305
315 317 320 318 320 324 319 318 318 318 318 317 317 317 317 317 317 317 319 318 316 319 322 325 323 322 324 324 323 322 320 319 318 315 313 312 311 309 308 307 306 305 303 301
316 315 319 322 322 322 321 318 318 318 317 318 317 317 316 315 315 319 317 317 318 320 319 318 320 320 320 320 319 317 316 315 313 312 311 309 308 305 303 302 302 301 299 299
315 312 316 321 323 324 321 318 318 319 318 318 318 318 317 316 316 316 318 318 318 317 317 316 316 316 317 316 316 314 312 312 310 309 308 306 305 303 301 300 299 299 299 299
312 312 315 317 320 319 320 318 319 320 318 319 318 319 319 318 317 316 317 316 316 315 314 315 314 312 313 313 312 310 309 308 308 307 306 304 304 303 302 301 301 300 300 299
315 317 319 320 321 323 317 319 319 317 317 319 318 319 318 318 317 318 316 315 314 313 312 312 311 310 311 311 309 307 307 307 306 305 304 303 302 301 301 301 300 299 298 297
318 315 318 321 320 318 315 318 317 319 321 321 319 318 319 318 317 316 315 313 313 312 311 311 310 309 310 309 308 305 304 304 303 302 301 301 301 300 299 299 298 298 297 295
316 316 317 315 314 316 314 317 318 321 321 321 319 319 318 318 316 314 313 312 311 309 309 309 309 308 307 307 306 304 304 303 302 301 300 299 298 296 293 293 293 291 290 289
317 316 318 317 315 316 316 318 320 320 320 320 319 319 318 317 316 315 313 311 309 309 309 309 308 306 305 305 304 303 303 301 298 296 295 293 292 290 289 289 288 288 286 287
313 316 316 316 316 317 318 319 317 316 321 320 320 319 317 316 315 313 311 309 309 307 307 306 305 302 302 302 301 300 299 297 294 292 291 290 289 287 287 286 283 282 282 281